[[{"header":{"parameterUnit":"m.s-1","parameterCategory":1,"la1":30.2991,"la2":30.254,"lo1":-89.0895,"lo2":-89.0444,"dy":0.0017,"dx":0.0017,"nx":28,"ny":28,"refTime":"2025-06-18T09:00:00:Z","depth":0,"parameterNumber":2,"parameterNumberName":"U-component_of_WINDS"},"data":[0,0,0,0,0,0,0,0,0,0,0,0,0,0,0,0,0,0,0,0,0,0,0,0,0,0,0,0,0,0,0,0,0,0,0,0,0,0,0,0,0,0,0,0,0,0,0,0,0,0,0,0,0,0,0,0,0,0,2.1264,2.1265,0,2.1399,2.14,2.1402,2.1395,2.1393,2.1391,2.1389,2.1532,2.1537,2.1543,0,0,0,0,0,0,0,0,0,0,0,0,0,2.1006,2.101,2.1263,2.1265,2.1267,2.1398,2.14,2.1402,2.1395,2.1393,2.1391,2.1389,2.153,2.1536,2.1543,0,0,0,0,0,0,0,0,0,0,0,0,0,2.1127,2.1012,2.1263,2.1279,2.1282,2.1398,2.14,2.1402,2.1396,2.1393,2.139,2.1387,2.1528,2.1536,2.1544,2.1654,0,0,2.157,2.1573,0,0,0,0,0,0,0,0,2.112,2.1136,2.1275,2.1278,2.1282,2.1377,2.1361,2.1487,2.1397,2.1353,2.1389,2.1386,2.1483,2.1495,2.1526,2.166,2.1666,2.157,2.1575,2.1579,2.1581,0,0,0,0,0,0,0,2.1112,2.1131,2.1317,2.1277,2.1281,2.1282,2.1296,2.1385,2.1433,2.1356,2.1356,2.1372,2.1484,2.1518,2.153,2.1669,2.157,2.1578,2.1583,2.1586,2.1902,2.1905,0,0,0,0,0,0,2.1099,2.1124,2.1313,2.1321,2.1192,2.1289,2.1304,2.1349,2.1432,2.1441,2.1375,2.1371,2.1506,2.152,2.1535,2.167,2.1579,2.1587,2.1592,2.1898,2.1902,2.1906,0,0,0,0,0,0,2.1094,2.1116,2.1307,2.1222,2.1247,2.1296,2.1347,2.1354,2.1388,2.1445,2.1454,2.14,2.1504,2.1523,2.1624,2.1674,2.1591,2.1598,2.1894,2.19,2.1904,2.1939,0,0,0,0,0,0,2.1086,2.1114,2.1155,2.1223,2.1251,2.1393,2.135,2.1358,2.1402,2.1399,2.1472,2.1481,2.1503,2.1612,2.1633,2.1684,2.1605,2.189,2.1897,2.1903,2.1934,2.1945,2.1955,0,0,0,0,0,2.1077,2.116,2.1157,2.118,2.1303,2.1396,2.1412,2.1434,2.1406,2.1448,2.1485,2.1479,2.1666,2.1622,2.1646,2.1701,2.1887,2.1895,2.1902,2.1929,2.1943,2.1954,0,0,0,0,0,0,2.1096,2.1169,2.1166,2.1273,2.1328,2.1395,2.1448,2.1448,2.1513,2.1507,2.1534,2.155,2.1652,2.1687,2.1637,2.1812,2.1773,2.1786,2.1786,2.1799,2.1809,2.1799,2.1612,0,0,0,0,0,2.1113,2.1181,2.1241,2.133,2.1358,2.1398,2.144,2.1452,2.1511,2.1534,2.1579,2.1637,2.1709,2.1756,2.1826,2.1939,2.1956,2.1989,2.1999,2.2007,2.2018,2.2083,2.2098,2.1931,2.1931,2.1931,0,0,2.1148,2.1196,2.1237,2.1335,2.1379,2.1451,2.1418,2.1495,2.1549,2.1547,2.1645,2.168,2.1747,2.1855,2.1906,2.1887,2.2068,2.2017,2.2023,2.2029,2.2092,2.2108,2.2122,2.1936,2.1935,2.1934,0,0,2.1248,2.1291,2.137,2.1415,2.1483,2.151,2.1529,2.1596,2.1619,2.1718,2.1718,2.1784,2.1907,2.1955,2.1996,2.2117,2.2114,2.214,2.2193,2.2255,2.2269,2.228,2.2325,2.234,2.215,2.215,2.215,0,2.1283,2.139,2.1411,2.1489,2.1533,2.1534,2.1616,2.1659,2.1746,2.1777,2.1755,2.1911,2.1956,2.2077,2.2106,2.2139,2.2163,2.2131,2.2265,2.2277,2.2288,2.2331,2.2347,2.2153,2.2152,2.2152,2.2152,0,2.1431,2.1505,2.1561,2.1644,2.1695,2.1774,2.1809,2.1858,2.1867,2.1897,2.1999,2.2054,2.2135,2.2165,2.2174,2.2288,2.2275,2.2259,2.222,2.2306,2.2347,2.2363,2.2156,2.2155,2.2155,2.2154,0,0,2.1545,2.164,2.1661,2.1699,2.1775,2.1833,2.1914,2.1993,2.2035,2.2096,2.2165,2.227,2.2256,2.2303,2.2318,2.2373,2.2468,2.2351,2.2353,2.2371,2.2597,2.2609,2.2627,2.2466,2.247,2.2472,2.2592,0,2.1653,2.1794,2.1817,2.1942,2.2012,2.2016,2.2086,2.2141,2.2172,2.2238,2.2272,2.2347,2.2322,2.2351,2.2405,2.2444,2.2513,2.2436,2.2532,2.2536,2.2515,2.2648,2.266,2.2771,2.2608,2.2611,2.2613,0,2.1798,2.1862,2.1993,2.2061,2.2092,2.2154,2.2229,2.2291,2.2355,2.2374,2.2427,2.2436,2.2522,2.248,2.2599,2.2546,2.2588,2.2613,2.2618,2.2628,2.2579,2.2662,2.2806,2.2823,2.2638,2.2636,2.2634,0,2.1868,2.1988,2.2083,2.2116,2.2197,2.2242,2.2278,2.2339,2.2385,2.2452,2.2483,2.2558,2.26,2.2659,2.269,2.2656,2.2808,2.2768,2.2828,2.2827,2.2859,2.2857,2.3012,2.2885,2.2885,2.2885,2.2885,0,2.1987,2.2067,2.2116,2.2174,2.2265,2.2292,2.2383,2.2418,2.2473,2.2539,2.2548,2.261,2.2647,2.2716,2.274,2.2837,2.2855,2.2874,2.288,2.2873,2.2871,2.2901,2.2894,2.2889,2.2888,2.2887,2.2887,0,2.2081,2.2116,2.222,2.2289,2.2309,2.2373,2.2433,2.2491,2.2522,2.2607,2.2628,2.2678,2.276,2.2796,2.2897,2.2914,2.3024,2.3024,2.3002,2.3004,2.3061,2.3056,2.3241,2.3268,2.3123,2.3125,2.3126,0,2.2153,2.2216,2.2292,2.2337,2.2374,2.2447,2.2494,2.2525,2.2574,2.2653,2.2702,2.2783,2.285,2.2981,2.3027,2.3104,2.3107,2.3167,2.3118,2.3111,2.3109,2.3104,2.3111,2.3175,2.3177,2.3178,2.3179,0,2.228,2.2295,2.2362,2.2438,2.2494,2.2555,2.2615,2.2651,2.2692,2.2747,2.2831,2.2882,2.2986,2.3067,2.3148,2.3187,2.3191,2.3194,2.3212,2.3206,2.3191,2.32,2.3026,2.3189,2.3188,2.3187,2.3187,2.3186,2.2366,2.2422,2.2485,2.2561,2.2609,2.2665,2.2723,2.2763,2.2832,2.2918,2.2932,2.3021,2.3086,2.3195,2.3238,2.3309,2.3295,2.332,2.3327,2.3333,2.3337,2.3179,2.3324,2.3323,2.3323,2.3323,2.3323,0,2.2492,2.2534,2.2604,2.2687,2.2748,2.2745,2.2812,2.2863,2.2941,2.3,2.3066,2.3163,2.3243,2.3296,2.3377,2.3424,2.3428,2.3445,2.3442,2.3451,2.3344,2.3321,2.344,2.344,2.344,2.344,2.344,2.344,2.2565,2.2661,2.2684,2.2804,2.2845,2.2932,2.2971,2.3023,2.3071,2.3179,2.3245,2.3279,2.3337,2.3423,2.3497,2.351,2.354,2.3558,2.3571,2.347,2.3458,2.3446,2.3424,2.3564,2.3564,2.3672,2.3673,2.3673]},{"header":{"parameterUnit":"m.s-1","parameterCategory":1,"la1":30.2991,"la2":30.254,"lo1":-89.0895,"lo2":-89.0444,"dy":0.0017,"dx":0.0017,"nx":28,"ny":28,"refTime":"2025-06-18T09:00:00:Z","depth":0,"parameterNumber":3,"parameterNumberName":"V-component_of_WINDS"},"data":[0,0,0,0,0,0,0,0,0,0,0,0,0,0,0,0,0,0,0,0,0,0,0,0,0,0,0,0,0,0,0,0,0,0,0,0,0,0,0,0,0,0,0,0,0,0,0,0,0,0,0,0,0,0,0,0,0,0,5.2448,5.245,0,5.2644,5.2646,5.2649,5.2672,5.267,5.2668,5.2666,5.2854,5.2861,5.2868,0,0,0,0,0,0,0,0,0,0,0,0,0,5.2081,5.2088,5.2448,5.2451,5.2453,5.2644,5.2646,5.2649,5.2672,5.267,5.2668,5.2665,5.2852,5.286,5.2868,0,0,0,0,0,0,0,0,0,0,0,0,0,5.2255,5.209,5.2448,5.2488,5.2493,5.2643,5.2647,5.265,5.2673,5.267,5.2667,5.2664,5.2849,5.2859,5.2869,5.2989,0,0,5.29,5.2905,0,0,0,0,0,0,0,0,5.2245,5.2268,5.2479,5.2485,5.2492,5.2631,5.2586,5.2763,5.2673,5.2604,5.2666,5.2663,5.2781,5.2797,5.284,5.2998,5.3006,5.2901,5.2907,5.2912,5.2915,0,0,0,0,0,0,0,5.2233,5.226,5.2525,5.2482,5.249,5.2492,5.2513,5.262,5.2706,5.261,5.2612,5.2636,5.2784,5.283,5.2844,5.3008,5.2901,5.291,5.2916,5.292,5.3273,5.3276,0,0,0,0,0,0,5.2215,5.225,5.2519,5.2531,5.2359,5.2501,5.2525,5.2589,5.2705,5.272,5.2638,5.2636,5.2814,5.2832,5.2851,5.2998,5.2912,5.2921,5.2927,5.3269,5.3273,5.3277,0,0,0,0,0,0,5.2207,5.2239,5.2511,5.2391,5.2426,5.251,5.2582,5.2594,5.264,5.2726,5.274,5.267,5.2812,5.2836,5.2955,5.3005,5.2926,5.2935,5.3266,5.3271,5.3275,5.3294,0,0,0,0,0,0,5.2197,5.2236,5.2285,5.2392,5.2433,5.2616,5.2585,5.26,5.2659,5.2658,5.276,5.2774,5.2812,5.294,5.2965,5.3017,5.2943,5.3261,5.3268,5.3274,5.3289,5.3298,5.3307,0,0,0,0,0,5.2183,5.228,5.2288,5.232,5.2497,5.2619,5.2641,5.2687,5.2663,5.2711,5.2766,5.277,5.2995,5.2952,5.298,5.3036,5.3258,5.3266,5.3273,5.3285,5.3297,5.3307,0,0,0,0,0,0,5.2172,5.2295,5.2305,5.244,5.2519,5.2623,5.2685,5.2698,5.2783,5.2778,5.2827,5.285,5.2966,5.3013,5.2962,5.3157,5.3124,5.3137,5.3123,5.3135,5.3144,5.3129,5.2951,0,0,0,0,0,5.2186,5.228,5.238,5.2489,5.2529,5.26,5.2655,5.2684,5.2766,5.2799,5.2863,5.2939,5.3027,5.3083,5.3169,5.3296,5.3317,5.3348,5.3357,5.3364,5.3375,5.3444,5.3458,5.3301,5.3301,5.3301,0,0,5.2215,5.2293,5.2348,5.2489,5.2554,5.2646,5.2628,5.2726,5.2793,5.2812,5.2929,5.2978,5.3066,5.319,5.3247,5.3232,5.3423,5.3373,5.3378,5.3385,5.3453,5.3467,5.3481,5.3306,5.3305,5.3304,0,0,5.2314,5.2383,5.2482,5.2549,5.2649,5.2696,5.2719,5.2821,5.2856,5.2975,5.2991,5.3069,5.322,5.3282,5.3333,5.3456,5.3462,5.3482,5.3528,5.3595,5.3607,5.3618,5.3661,5.3676,5.3492,5.3492,5.3492,0,5.2335,5.2479,5.253,5.2629,5.2689,5.2714,5.2812,5.2873,5.2993,5.3032,5.3015,5.3206,5.3266,5.3404,5.3434,5.3475,5.3501,5.347,5.3602,5.3614,5.3625,5.3666,5.3682,5.3494,5.3494,5.3494,5.3493,0,5.2499,5.2598,5.2665,5.2786,5.2854,5.2951,5.3013,5.3075,5.3097,5.3144,5.3264,5.3338,5.3439,5.3474,5.3495,5.3614,5.3602,5.3593,5.356,5.3641,5.368,5.3696,5.3497,5.3496,5.3495,5.3495,0,0,5.2596,5.2746,5.277,5.2825,5.2937,5.3012,5.3109,5.3213,5.3263,5.3345,5.3426,5.3553,5.3546,5.3604,5.3632,5.3691,5.3781,5.3674,5.3677,5.3691,5.3915,5.3921,5.3939,5.3786,5.379,5.3792,5.3908,0,5.2707,5.2887,5.2936,5.3085,5.3176,5.3201,5.3285,5.3361,5.3407,5.3487,5.3536,5.3626,5.361,5.3646,5.3705,5.3758,5.3827,5.375,5.3858,5.3862,5.3836,5.396,5.3966,5.4072,5.3923,5.3926,5.3928,0,5.2861,5.2952,5.3112,5.3213,5.3252,5.3328,5.3426,5.3503,5.3588,5.3617,5.3683,5.3706,5.3804,5.3766,5.39,5.3847,5.3894,5.3926,5.3931,5.3942,5.3899,5.3973,5.4107,5.4122,5.3953,5.3951,5.3949,0,5.2915,5.3076,5.3193,5.3239,5.336,5.3412,5.3464,5.3547,5.3605,5.3689,5.3727,5.3819,5.387,5.3939,5.3985,5.3953,5.4114,5.4081,5.4138,5.4137,5.417,5.4168,5.4313,5.4202,5.4201,5.4201,5.4201,0,5.3034,5.313,5.3219,5.329,5.3398,5.3452,5.3556,5.3607,5.3681,5.376,5.3786,5.3858,5.3915,5.3994,5.403,5.4134,5.4156,5.418,5.4188,5.4178,5.4175,5.4209,5.4202,5.4205,5.4204,5.4203,5.4203,0,5.3112,5.3176,5.3304,5.341,5.3438,5.3513,5.36,5.3668,5.3716,5.3816,5.3842,5.3915,5.4009,5.4063,5.418,5.4204,5.432,5.4325,5.4293,5.4296,5.4351,5.4345,5.4522,5.4547,5.442,5.4421,5.4422,0,5.3184,5.3259,5.3374,5.3431,5.3485,5.3576,5.3637,5.3692,5.3753,5.3856,5.3911,5.4009,5.4089,5.4238,5.4299,5.4388,5.4395,5.4451,5.4408,5.4395,5.4395,5.439,5.4396,5.4458,5.4459,5.446,5.4461,0,5.3304,5.3332,5.3421,5.3522,5.3596,5.3676,5.3756,5.38,5.3867,5.3934,5.4034,5.4097,5.4219,5.4314,5.4408,5.4456,5.4469,5.4474,5.4492,5.4481,5.446,5.4472,5.4312,5.4469,5.4468,5.4468,5.4467,5.4467,5.338,5.3449,5.3541,5.3639,5.3706,5.378,5.385,5.3907,5.3993,5.41,5.4125,5.423,5.431,5.444,5.4491,5.457,5.4559,5.4585,5.4592,5.4597,5.4599,5.4448,5.4587,5.4587,5.4587,5.4587,5.4586,0,5.3501,5.3562,5.3652,5.3765,5.3842,5.3852,5.394,5.4002,5.4096,5.4172,5.4253,5.4366,5.4458,5.4527,5.462,5.467,5.4678,5.4693,5.4689,5.47,5.4604,5.4579,5.4685,5.4685,5.4685,5.4685,5.4685,5.4685,5.3573,5.3689,5.3728,5.3876,5.3935,5.4041,5.4091,5.4158,5.422,5.4347,5.4426,5.4472,5.4544,5.4643,5.4727,5.4744,5.4777,5.4791,5.4808,5.4717,5.4706,5.4696,5.4673,5.4798,5.4798,5.4898,5.4899,5.4899]}]]